TimeEDT,TemperatureF,Dew PointF,Humidity,Sea Level PressureIn,VisibilityMPH,Wind Direction,Wind SpeedMPH,Gust SpeedMPH,PrecipitationIn,Events,Conditions,WindDirDegrees,DateUTC
12:00 AM,37.9,36.0,93,29.61,10.0,Calm,Calm,-,N/A,,Clear,0,2012-11-01 04:00:00
1:00 AM,37.0,36.0,96,29.60,10.0,Calm,Calm,-,N/A,,Clear,0,2012-11-01 05:00:00
2:00 AM,37.0,35.1,93,29.60,10.0,Calm,Calm,-,N/A,,Clear,0,2012-11-01 06:00:00
3:00 AM,37.0,35.1,93,29.60,10.0,Calm,Calm,-,N/A,,Clear,0,2012-11-01 07:00:00
4:00 AM,36.0,35.1,97,29.60,10.0,Calm,Calm,-,N/A,,Clear,0,2012-11-01 08:00:00
5:00 AM,36.0,34.0,93,29.61,10.0,SW,4.6,-,N/A,,Clear,230,2012-11-01 09:00:00
6:00 AM,37.0,35.1,93,29.61,10.0,WSW,5.8,-,N/A,,Clear,250,2012-11-01 10:00:00
7:00 AM,37.9,35.1,89,29.60,10.0,WSW,4.6,-,N/A,,Clear,250,2012-11-01 11:00:00
8:00 AM,37.9,36.0,93,29.62,10.0,Calm,Calm,-,N/A,,Mostly Cloudy,0,2012-11-01 12:00:00
9:00 AM,45.0,39.0,80,29.62,10.0,WSW,6.9,-,N/A,,Mostly Cloudy,240,2012-11-01 13:00:00
10:00 AM,46.9,39.0,74,29.63,10.0,WSW,8.1,-,N/A,,Mostly Cloudy,240,2012-11-01 14:00:00
11:00 AM,51.1,37.9,61,29.62,10.0,West,13.8,19.6,N/A,,Overcast,270,2012-11-01 15:00:00
12:00 PM,50.0,37.0,61,29.63,10.0,West,12.7,-,N/A,,Overcast,270,2012-11-01 16:00:00
1:00 PM,52.0,37.9,59,29.60,10.0,West,9.2,19.6,N/A,,Scattered Clouds,260,2012-11-01 17:00:00
2:00 PM,51.1,37.9,61,29.60,10.0,West,13.8,-,N/A,,Overcast,270,2012-11-01 18:00:00
3:00 PM,51.1,37.0,59,29.60,10.0,West,10.4,-,N/A,,Overcast,280,2012-11-01 19:00:00
4:00 PM,50.0,37.9,63,29.60,10.0,West,8.1,-,N/A,,Overcast,260,2012-11-01 20:00:00
5:00 PM,50.0,39.0,66,29.61,10.0,West,6.9,-,N/A,,Overcast,270,2012-11-01 21:00:00
8:00 PM,48.0,39.0,71,29.64,10.0,WSW,5.8,-,N/A,,Overcast,250,2012-11-02 00:00:00
9:00 PM,45.0,39.0,80,29.64,10.0,WSW,5.8,-,N/A,,Clear,240,2012-11-02 01:00:00
10:00 PM,45.0,39.0,80,29.65,10.0,WSW,3.5,-,N/A,,Overcast,240,2012-11-02 02:00:00
11:00 PM,45.0,39.9,82,29.65,10.0,WSW,3.5,-,N/A,,Overcast,240,2012-11-02 03:00:00